CES5697 ZSSS-ZYTL

Flight info

Callsign CES5697
Flight time 1h 35m
Altitude 30100
Route PIK71D/36L PIKAS G330 PIMOL A593 LAGAL W178 RUXEL DCT GURIL DCT MABEB DCT XDX DCT URBAD W172 IGDEG W173 NIXEP NIX07A
Aircraft B77W/H-SDE1E2E3FGHIJ2J3J4J5M1RWXY/LB1D1

Departure

Time 2026-04-30 06:24
Airport Shanghai Hongqiao International Airport (ZSSS)

Arrival

Time 2026-04-30 08:00
Airport Dalian Zhoushuizi International Airport (ZYTL)
Time Latitude Longitude Altitude Speed Heading
2026-04-30 05:51 31.19974 121.32725 20 ft 0 kts 178°
2026-04-30 06:07 31.19986 121.32725 20 ft 2 kts 178°
2026-04-30 06:07 31.20001 121.32725 20 ft 2 kts 178°
2026-04-30 06:07 31.20016 121.32724 20 ft 2 kts 178°
2026-04-30 06:08 31.20031 121.32723 20 ft 2 kts 163°
2026-04-30 06:08 31.20044 121.32715 20 ft 2 kts 137°
2026-04-30 06:08 31.20053 121.32702 20 ft 2 kts 114°
2026-04-30 06:08 31.20057 121.32685 20 ft 2 kts 91°
2026-04-30 06:09 31.20056 121.32667 20 ft 2 kts 83°
2026-04-30 06:09 31.20055 121.32651 20 ft 1 kts 86°
2026-04-30 06:09 31.20055 121.32647 20 ft 0 kts 86°
2026-04-30 06:15 31.20055 121.32658 20 ft 3 kts 87°
2026-04-30 06:16 31.20057 121.32700 20 ft 7 kts 87°
2026-04-30 06:16 31.20060 121.32774 20 ft 10 kts 87°
2026-04-30 06:16 31.20064 121.32873 20 ft 13 kts 87°
2026-04-30 06:16 31.20068 121.32985 20 ft 7 kts 87°
2026-04-30 06:17 31.20039 121.33040 20 ft 9 kts 159°
2026-04-30 06:17 31.19957 121.33047 20 ft 13 kts 177°
2026-04-30 06:17 31.19852 121.33052 20 ft 16 kts 177°
2026-04-30 06:17 31.19728 121.33059 20 ft 18 kts 177°
2026-04-30 06:18 31.19603 121.33066 20 ft 17 kts 177°
2026-04-30 06:18 31.19486 121.33072 20 ft 16 kts 177°
2026-04-30 06:18 31.19378 121.33077 20 ft 15 kts 177°
2026-04-30 06:18 31.19276 121.33083 20 ft 14 kts 177°
2026-04-30 06:19 31.19179 121.33089 20 ft 13 kts 177°
2026-04-30 06:19 31.19089 121.33094 20 ft 12 kts 177°
2026-04-30 06:19 31.19002 121.33099 20 ft 12 kts 177°
2026-04-30 06:19 31.18920 121.33102 20 ft 11 kts 177°
2026-04-30 06:20 31.18840 121.33107 20 ft 11 kts 177°
2026-04-30 06:20 31.18764 121.33112 20 ft 10 kts 177°
2026-04-30 06:20 31.18691 121.33116 20 ft 10 kts 177°
2026-04-30 06:20 31.18620 121.33120 20 ft 9 kts 177°
2026-04-30 06:21 31.18551 121.33123 20 ft 9 kts 177°
2026-04-30 06:21 31.18485 121.33127 20 ft 9 kts 177°
2026-04-30 06:21 31.18420 121.33131 20 ft 7 kts 177°
2026-04-30 06:21 31.18368 121.33134 20 ft 7 kts 174°
2026-04-30 06:22 31.18342 121.33169 20 ft 6 kts 97°
2026-04-30 06:22 31.18340 121.33219 20 ft 6 kts 88°
2026-04-30 06:22 31.18341 121.33268 20 ft 6 kts 86°
2026-04-30 06:22 31.18362 121.33312 20 ft 7 kts 26°
2026-04-30 06:23 31.18416 121.33321 20 ft 8 kts 357°
2026-04-30 06:23 31.18518 121.33316 20 ft 32 kts 357°
2026-04-30 06:23 31.18992 121.33288 20 ft 102 kts 357°
2026-04-30 06:23 31.19915 121.33241 38 ft 158 kts 357°
2026-04-30 06:24 31.21028 121.33175 610 ft 163 kts 355°
2026-04-30 06:24 31.22213 121.33041 1165 ft 177 kts 343°
2026-04-30 06:24 31.23286 121.32381 1677 ft 183 kts 324°
2026-04-30 06:24 31.24354 121.31454 2031 ft 200 kts 324°
2026-04-30 06:25 31.25552 121.30427 2359 ft 222 kts 324°
2026-04-30 06:25 31.26852 121.29313 2788 ft 240 kts 324°
2026-04-30 06:25 31.28213 121.28145 3442 ft 248 kts 324°
2026-04-30 06:25 31.29602 121.26952 4234 ft 249 kts 324°
2026-04-30 06:26 31.31019 121.25735 4787 ft 253 kts 324°
2026-04-30 06:26 31.32429 121.24523 4891 ft 254 kts 324°
2026-04-30 06:26 31.33873 121.23281 4896 ft 254 kts 324°
2026-04-30 06:26 31.35290 121.22063 4900 ft 253 kts 324°
2026-04-30 06:27 31.36721 121.20832 4900 ft 254 kts 324°
2026-04-30 06:27 31.38139 121.19611 4894 ft 254 kts 324°
2026-04-30 06:27 31.39571 121.18378 4896 ft 255 kts 323°
2026-04-30 06:27 31.40890 121.16940 4969 ft 265 kts 314°
2026-04-30 06:28 31.42115 121.15372 5886 ft 260 kts 313°
2026-04-30 06:28 31.43322 121.13819 6720 ft 258 kts 313°
2026-04-30 06:28 31.44535 121.12289 7428 ft 259 kts 317°
2026-04-30 06:28 31.46037 121.11131 8121 ft 261 kts 332°
2026-04-30 06:29 31.47689 121.10228 8797 ft 264 kts 334°
2026-04-30 06:29 31.49366 121.09345 9467 ft 266 kts 333°
2026-04-30 06:29 31.51047 121.08457 10175 ft 267 kts 332°
2026-04-30 06:29 31.52781 121.07536 10581 ft 280 kts 332°
2026-04-30 06:30 31.54614 121.06559 10847 ft 298 kts 332°
2026-04-30 06:30 31.56553 121.05527 11152 ft 315 kts 332°
2026-04-30 06:30 31.58591 121.04444 11529 ft 329 kts 332°
2026-04-30 06:30 31.60695 121.03326 12204 ft 334 kts 332°
2026-04-30 06:31 31.62824 121.02195 13003 ft 337 kts 331°
2026-04-30 06:31 31.64946 121.01066 13794 ft 341 kts 330°
2026-04-30 06:31 31.67119 120.99907 14588 ft 346 kts 329°
2026-04-30 06:31 31.69318 120.98734 15398 ft 352 kts 329°
2026-04-30 06:32 31.71571 120.97530 16136 ft 360 kts 328°
2026-04-30 06:32 31.73867 120.96306 17014 ft 363 kts 328°
2026-04-30 06:32 31.76163 120.95079 17823 ft 368 kts 327°
2026-04-30 06:32 31.78525 120.93816 18523 ft 375 kts 327°
2026-04-30 06:33 31.80888 120.92553 19350 ft 378 kts 327°
2026-04-30 06:33 31.83302 120.91262 20130 ft 381 kts 326°
2026-04-30 06:33 31.85706 120.89974 20783 ft 387 kts 326°
2026-04-30 06:33 31.88195 120.88641 21526 ft 391 kts 326°
2026-04-30 06:34 31.90666 120.87318 22245 ft 394 kts 325°
2026-04-30 06:34 31.93137 120.85993 22891 ft 398 kts 325°
2026-04-30 06:34 31.95683 120.84626 23531 ft 402 kts 325°
2026-04-30 06:34 31.98232 120.83255 24113 ft 408 kts 325°
2026-04-30 06:35 32.00845 120.81849 24645 ft 413 kts 325°
2026-04-30 06:35 32.03463 120.80441 25224 ft 417 kts 325°
2026-04-30 06:35 32.06121 120.79010 25792 ft 422 kts 325°
2026-04-30 06:35 32.08726 120.77451 26311 ft 418 kts 318°
2026-04-30 06:36 32.11065 120.75496 26771 ft 413 kts 310°
2026-04-30 06:36 32.13129 120.73141 27176 ft 410 kts 302°
2026-04-30 06:36 32.14841 120.70461 27736 ft 403 kts 294°
2026-04-30 06:36 32.16153 120.67587 28409 ft 395 kts 286°
2026-04-30 06:37 32.17077 120.64604 28983 ft 391 kts 279°
2026-04-30 06:37 32.17636 120.61459 29500 ft 389 kts 272°
2026-04-30 06:37 32.17923 120.58326 30002 ft 389 kts 271°
2026-04-30 06:37 32.18190 120.55154 30153 ft 387 kts 271°
2026-04-30 06:38 32.18454 120.52010 30165 ft 381 kts 271°
2026-04-30 06:38 32.18965 120.45847 30171 ft 380 kts 271°
2026-04-30 06:39 32.19474 120.39648 30168 ft 381 kts 271°
2026-04-30 06:39 32.19981 120.33463 30179 ft 380 kts 271°
2026-04-30 06:40 32.20486 120.27241 30186 ft 380 kts 271°
2026-04-30 06:40 32.20998 120.20998 30189 ft 382 kts 272°
2026-04-30 06:41 32.21503 120.14817 30188 ft 380 kts 271°
2026-04-30 06:41 32.22004 120.08629 30183 ft 381 kts 272°
2026-04-30 06:42 32.22509 120.02358 30187 ft 382 kts 272°
2026-04-30 06:42 32.23006 119.96143 30185 ft 382 kts 272°
2026-04-30 06:43 32.23503 119.89895 30180 ft 382 kts 272°
2026-04-30 06:43 32.24144 119.83698 30178 ft 385 kts 279°
2026-04-30 06:44 32.25991 119.77770 30162 ft 394 kts 292°
2026-04-30 06:44 32.29245 119.72473 30166 ft 407 kts 307°
2026-04-30 06:45 32.33743 119.68194 30165 ft 418 kts 316°
2026-04-30 06:45 32.38477 119.64236 30165 ft 418 kts 317°
2026-04-30 06:46 32.43205 119.60238 30165 ft 416 kts 316°
2026-04-30 06:46 32.47910 119.56228 30160 ft 417 kts 317°
2026-04-30 06:47 32.52622 119.52169 30151 ft 416 kts 317°
2026-04-30 06:47 32.57271 119.48154 30158 ft 416 kts 317°
2026-04-30 06:48 32.61941 119.44115 30147 ft 414 kts 317°
2026-04-30 06:48 32.66613 119.40066 30144 ft 417 kts 318°
2026-04-30 06:49 32.71248 119.36046 30139 ft 413 kts 318°
2026-04-30 06:49 32.75963 119.31947 30161 ft 416 kts 318°
2026-04-30 06:50 32.80621 119.27895 30141 ft 415 kts 318°
2026-04-30 06:50 32.85264 119.23850 30141 ft 414 kts 319°
2026-04-30 06:51 32.89898 119.19808 30149 ft 414 kts 319°
2026-04-30 06:51 32.94545 119.15749 30137 ft 414 kts 319°
2026-04-30 06:52 32.99244 119.11702 30146 ft 417 kts 320°
2026-04-30 06:52 33.03903 119.07693 30138 ft 413 kts 320°
2026-04-30 06:53 33.08570 119.03667 30136 ft 415 kts 320°
2026-04-30 06:53 33.13266 118.99613 30134 ft 414 kts 320°
2026-04-30 06:54 33.17920 118.95587 30139 ft 414 kts 321°
2026-04-30 06:54 33.22554 118.91562 30137 ft 413 kts 321°
2026-04-30 06:55 33.27181 118.87519 30135 ft 412 kts 321°
2026-04-30 06:55 33.31829 118.83467 30139 ft 411 kts 321°
2026-04-30 06:56 33.36443 118.79475 30132 ft 410 kts 321°
2026-04-30 06:56 33.41089 118.75468 30128 ft 412 kts 323°
2026-04-30 06:57 33.46263 118.72543 30137 ft 418 kts 339°
2026-04-30 06:57 33.49166 118.71729 30144 ft 438 kts 346°
2026-04-30 06:57 33.52257 118.71389 30183 ft 458 kts 354°
2026-04-30 06:57 33.55485 118.71612 30455 ft 472 kts
2026-04-30 06:58 33.58754 118.72195 31045 ft 472 kts
2026-04-30 06:58 33.62000 118.72790 31725 ft 468 kts
2026-04-30 06:58 33.65179 118.73354 32322 ft 466 kts
2026-04-30 06:58 33.68383 118.73907 32752 ft 467 kts
2026-04-30 06:59 33.71636 118.74457 33115 ft 470 kts
2026-04-30 06:59 33.74901 118.75001 33541 ft 471 kts
2026-04-30 06:59 33.78120 118.75533 34085 ft 469 kts
2026-04-30 06:59 33.81336 118.76061 34527 ft 468 kts
2026-04-30 07:00 33.84624 118.76597 35055 ft 470 kts
2026-04-30 07:00 33.87846 118.77118 35481 ft 470 kts
2026-04-30 07:00 33.91084 118.77638 35929 ft 470 kts
2026-04-30 07:00 33.94386 118.78166 36327 ft 470 kts
2026-04-30 07:01 33.97592 118.78679 36710 ft 471 kts
2026-04-30 07:01 34.00851 118.79200 37056 ft 471 kts
2026-04-30 07:01 34.04136 118.79723 37120 ft 474 kts
2026-04-30 07:02 34.10679 118.80772 37124 ft 471 kts
2026-04-30 07:02 34.17222 118.81825 37116 ft 474 kts
2026-04-30 07:03 34.23729 118.82879 37113 ft 471 kts
2026-04-30 07:03 34.30233 118.83932 37113 ft 472 kts
2026-04-30 07:04 34.36779 118.84993 37112 ft 472 kts
2026-04-30 07:04 34.43276 118.86048 37111 ft 470 kts
2026-04-30 07:05 34.53061 118.87640 37113 ft 472 kts
2026-04-30 07:05 34.59372 118.89889 37109 ft 482 kts 21°
2026-04-30 07:06 34.65071 118.94469 37109 ft 492 kts 35°
2026-04-30 07:06 34.70363 118.99761 37110 ft 495 kts 35°
2026-04-30 07:07 34.75668 119.05084 37113 ft 495 kts 35°
2026-04-30 07:07 34.80981 119.10419 37111 ft 496 kts 35°
2026-04-30 07:08 34.86292 119.15757 37111 ft 493 kts 35°
2026-04-30 07:08 34.91575 119.21075 37109 ft 495 kts 35°
2026-04-30 07:09 34.96878 119.26421 37108 ft 497 kts 35°
2026-04-30 07:09 35.02202 119.31797 37094 ft 495 kts 35°
2026-04-30 07:10 35.07513 119.37170 37086 ft 494 kts 35°
2026-04-30 07:10 35.12796 119.42522 37088 ft 493 kts 35°
2026-04-30 07:11 35.18090 119.47897 37088 ft 495 kts 36°
2026-04-30 07:11 35.23410 119.53305 37086 ft 495 kts 36°
2026-04-30 07:12 35.28695 119.58688 37083 ft 496 kts 36°
2026-04-30 07:12 35.33995 119.64096 37081 ft 495 kts 36°
2026-04-30 07:13 35.39286 119.69504 37072 ft 496 kts 36°
2026-04-30 07:13 35.44581 119.74926 37065 ft 495 kts 36°
2026-04-30 07:14 35.49912 119.80302 37074 ft 496 kts 36°
2026-04-30 07:14 35.55256 119.85689 37070 ft 495 kts 36°
2026-04-30 07:15 35.60574 119.91063 37071 ft 496 kts 36°
2026-04-30 07:15 35.65895 119.96449 37073 ft 497 kts 36°
2026-04-30 07:16 35.71186 120.01817 37068 ft 495 kts 36°
2026-04-30 07:16 35.76530 120.07248 37069 ft 496 kts 36°
2026-04-30 07:17 35.81824 120.12639 37067 ft 495 kts 37°
2026-04-30 07:18 35.89746 120.20724 37069 ft 497 kts 37°
2026-04-30 07:18 35.95081 120.26180 37065 ft 495 kts 37°
2026-04-30 07:19 36.00076 120.32071 37063 ft 499 kts 45°
2026-04-30 07:19 36.04722 120.38461 37064 ft 500 kts 45°
2026-04-30 07:20 36.09890 120.44080 37059 ft 493 kts 29°
2026-04-30 07:20 36.16092 120.47491 37067 ft 485 kts 11°
2026-04-30 07:21 36.22722 120.48571 37078 ft 479 kts 360°
2026-04-30 07:21 36.29382 120.49007 37074 ft 479 kts 359°
2026-04-30 07:22 36.39348 120.50301 37070 ft 482 kts 13°
2026-04-30 07:22 36.45702 120.53116 37069 ft 486 kts 17°
2026-04-30 07:23 36.52105 120.55900 37056 ft 481 kts 10°
2026-04-30 07:23 36.58715 120.57224 37067 ft 481 kts
2026-04-30 07:24 36.65313 120.58363 37055 ft 478 kts
2026-04-30 07:24 36.71922 120.59506 37054 ft 479 kts
2026-04-30 07:25 36.78573 120.60658 37058 ft 479 kts
2026-04-30 07:25 36.85181 120.61806 37057 ft 478 kts
2026-04-30 07:26 36.91741 120.62948 37056 ft 477 kts
2026-04-30 07:26 36.98319 120.64143 37057 ft 477 kts
2026-04-30 07:27 37.04911 120.65377 37050 ft 477 kts
2026-04-30 07:27 37.11445 120.66600 37048 ft 478 kts
2026-04-30 07:28 37.18072 120.67841 37052 ft 477 kts
2026-04-30 07:28 37.24638 120.69073 37054 ft 475 kts
2026-04-30 07:29 37.31189 120.70303 37053 ft 475 kts
2026-04-30 07:29 37.37706 120.71529 36994 ft 469 kts
2026-04-30 07:30 37.44201 120.72751 36408 ft 472 kts
2026-04-30 07:30 37.47430 120.73360 36145 ft 473 kts
2026-04-30 07:30 37.50681 120.73973 36004 ft 471 kts
2026-04-30 07:31 37.53930 120.74588 35714 ft 465 kts
2026-04-30 07:31 37.57093 120.75185 34877 ft 470 kts
2026-04-30 07:31 37.60392 120.75777 33914 ft 475 kts
2026-04-30 07:31 37.63670 120.76172 33053 ft 479 kts
2026-04-30 07:32 37.67003 120.76544 32205 ft 482 kts
2026-04-30 07:32 37.70332 120.76922 31299 ft 484 kts
2026-04-30 07:32 37.73680 120.77307 30539 ft 479 kts
2026-04-30 07:32 37.76958 120.77688 29973 ft 471 kts
2026-04-30 07:33 37.80171 120.78065 29311 ft 461 kts
2026-04-30 07:33 37.83342 120.78438 28719 ft 450 kts
2026-04-30 07:33 37.86429 120.78803 28152 ft 439 kts
2026-04-30 07:33 37.89418 120.79159 27584 ft 428 kts
2026-04-30 07:34 37.92350 120.79508 27022 ft 418 kts
2026-04-30 07:34 37.95184 120.79847 26501 ft 409 kts
2026-04-30 07:34 37.97996 120.80228 25924 ft 404 kts 12°
2026-04-30 07:34 38.00681 120.81078 25361 ft 397 kts 21°
2026-04-30 07:35 38.03204 120.82495 24807 ft 391 kts 30°
2026-04-30 07:35 38.05539 120.84204 24264 ft 386 kts 31°
2026-04-30 07:35 38.07830 120.85918 23708 ft 383 kts 31°
2026-04-30 07:35 38.10096 120.87617 23144 ft 386 kts 31°
2026-04-30 07:36 38.12430 120.89370 22591 ft 392 kts 31°
2026-04-30 07:36 38.14762 120.91122 22027 ft 390 kts 31°
2026-04-30 07:36 38.17078 120.92864 21469 ft 387 kts 31°
2026-04-30 07:36 38.19388 120.94603 20900 ft 383 kts 31°
2026-04-30 07:37 38.21664 120.96337 20328 ft 380 kts 33°
2026-04-30 07:37 38.23721 120.98417 19771 ft 379 kts 43°
2026-04-30 07:37 38.25427 121.00961 19211 ft 380 kts 53°
2026-04-30 07:37 38.26728 121.03876 18634 ft 380 kts 62°
2026-04-30 07:38 38.27804 121.06894 18062 ft 377 kts 64°
2026-04-30 07:38 38.28862 121.09920 17501 ft 374 kts 64°
2026-04-30 07:38 38.29911 121.12929 16948 ft 372 kts 64°
2026-04-30 07:38 38.30960 121.15943 16392 ft 370 kts 64°
2026-04-30 07:39 38.31982 121.18886 15849 ft 367 kts 64°
2026-04-30 07:39 38.32667 121.20857 15482 ft 366 kts 64°
2026-04-30 07:39 38.34029 121.24783 14754 ft 364 kts 64°
2026-04-30 07:39 38.35045 121.27716 14207 ft 362 kts 64°
2026-04-30 07:40 38.36052 121.30627 13662 ft 360 kts 64°
2026-04-30 07:40 38.37052 121.33523 13124 ft 357 kts 64°
2026-04-30 07:40 38.38053 121.36420 12581 ft 355 kts 64°
2026-04-30 07:40 38.39036 121.39272 12048 ft 352 kts 64°
2026-04-30 07:41 38.40029 121.42078 11540 ft 348 kts 59°
2026-04-30 07:41 38.41471 121.44551 11012 ft 344 kts 42°
2026-04-30 07:41 38.43377 121.46255 10748 ft 331 kts 24°
2026-04-30 07:41 38.45478 121.47266 10700 ft 313 kts 18°
2026-04-30 07:42 38.47522 121.48097 10601 ft 300 kts 16°
2026-04-30 07:42 38.49479 121.48848 10469 ft 288 kts 16°
2026-04-30 07:42 38.51361 121.49549 10337 ft 277 kts 15°
2026-04-30 07:42 38.53196 121.50227 10211 ft 267 kts 15°
2026-04-30 07:43 38.54952 121.50868 10062 ft 258 kts 13°
2026-04-30 07:43 38.56713 121.51068 9755 ft 256 kts 358°
2026-04-30 07:43 38.58504 121.50957 9635 ft 261 kts 356°
2026-04-30 07:43 38.60331 121.50813 9517 ft 262 kts 356°
2026-04-30 07:44 38.62154 121.50669 9393 ft 262 kts 356°
2026-04-30 07:44 38.63965 121.50528 9263 ft 260 kts 356°
2026-04-30 07:44 38.65772 121.50387 9132 ft 261 kts 356°
2026-04-30 07:44 38.67590 121.50245 8987 ft 260 kts 356°
2026-04-30 07:45 38.69382 121.50105 8828 ft 259 kts 356°
2026-04-30 07:45 38.71185 121.49965 8706 ft 259 kts 356°
2026-04-30 07:45 38.72993 121.49824 8577 ft 259 kts 356°
2026-04-30 07:45 38.74781 121.49684 8454 ft 259 kts 356°
2026-04-30 07:46 38.76591 121.49542 8329 ft 259 kts 356°
2026-04-30 07:46 38.78410 121.49400 8158 ft 258 kts 356°
2026-04-30 07:46 38.80203 121.49260 8025 ft 257 kts 356°
2026-04-30 07:46 38.81958 121.49123 7889 ft 248 kts 356°
2026-04-30 07:47 38.83656 121.48990 7806 ft 238 kts 356°
2026-04-30 07:47 38.85282 121.48840 7644 ft 230 kts 350°
2026-04-30 07:47 38.86694 121.48071 7488 ft 223 kts 321°
2026-04-30 07:47 38.87635 121.46490 7383 ft 227 kts 293°
2026-04-30 07:48 38.88033 121.44509 7369 ft 229 kts 282°
2026-04-30 07:48 38.88240 121.42490 7219 ft 230 kts 278°
2026-04-30 07:48 38.88399 121.40444 7132 ft 229 kts 278°
2026-04-30 07:48 38.88552 121.38400 6986 ft 229 kts 278°
2026-04-30 07:49 38.88703 121.36374 6853 ft 229 kts 277°
2026-04-30 07:49 38.88855 121.34337 6775 ft 228 kts 277°
2026-04-30 07:49 38.89004 121.32337 6680 ft 228 kts 277°
2026-04-30 07:49 38.89156 121.30297 6488 ft 226 kts 277°
2026-04-30 07:50 38.89303 121.28307 6370 ft 225 kts 277°
2026-04-30 07:50 38.89446 121.26363 6323 ft 213 kts 277°
2026-04-30 07:50 38.89582 121.24521 6208 ft 200 kts 277°
2026-04-30 07:50 38.89712 121.22791 6099 ft 194 kts 277°
2026-04-30 07:51 38.89843 121.21066 6012 ft 191 kts 277°
2026-04-30 07:51 38.89969 121.19391 5906 ft 190 kts 277°
2026-04-30 07:51 38.90095 121.17709 5797 ft 189 kts 277°
2026-04-30 07:51 38.90339 121.16068 5693 ft 187 kts 294°
2026-04-30 07:52 38.91088 121.14697 5610 ft 188 kts 319°
2026-04-30 07:52 38.92222 121.13893 5503 ft 188 kts 343°
2026-04-30 07:52 38.93516 121.13777 5418 ft 190 kts
2026-04-30 07:52 38.94849 121.13920 5323 ft 191 kts
2026-04-30 07:53 38.96158 121.14254 5209 ft 193 kts 22°
2026-04-30 07:53 38.97226 121.15270 5102 ft 196 kts 49°
2026-04-30 07:53 38.97826 121.16844 4996 ft 199 kts 77°
2026-04-30 07:53 38.97885 121.18619 4897 ft 200 kts 90°
2026-04-30 07:54 38.97829 121.20396 4783 ft 200 kts 91°
2026-04-30 07:54 38.97765 121.22196 4681 ft 200 kts 91°
2026-04-30 07:54 38.97704 121.23975 4566 ft 199 kts 91°
2026-04-30 07:54 38.97644 121.25744 4488 ft 200 kts 91°
2026-04-30 07:55 38.97655 121.27532 4222 ft 201 kts 87°
2026-04-30 07:55 38.97670 121.29317 3918 ft 199 kts 91°
2026-04-30 07:55 38.97615 121.31093 3627 ft 197 kts 92°
2026-04-30 07:55 38.97546 121.32831 3335 ft 196 kts 93°
2026-04-30 07:56 38.97474 121.34577 3039 ft 194 kts 94°
2026-04-30 07:56 38.97402 121.36294 2754 ft 190 kts 94°
2026-04-30 07:56 38.97331 121.37923 2469 ft 179 kts 95°
2026-04-30 07:56 38.97261 121.39493 2211 ft 172 kts 95°
2026-04-30 07:57 38.97197 121.40955 1972 ft 159 kts 95°
2026-04-30 07:57 38.97134 121.42361 1741 ft 157 kts 95°
2026-04-30 07:57 38.97073 121.43745 1514 ft 156 kts 95°
2026-04-30 07:57 38.97010 121.45136 1288 ft 155 kts 95°
2026-04-30 07:58 38.96950 121.46500 1073 ft 153 kts 95°
2026-04-30 07:58 38.96916 121.47868 858 ft 152 kts 93°
2026-04-30 07:58 38.96892 121.49223 652 ft 152 kts 94°
2026-04-30 07:58 38.96824 121.50568 417 ft 149 kts 96°
2026-04-30 07:59 38.96721 121.51883 213 ft 146 kts 97°
2026-04-30 07:59 38.96619 121.53157 119 ft 132 kts 97°
2026-04-30 07:59 38.96546 121.54130 118 ft 83 kts 95°
2026-04-30 08:00 38.96453 121.54697 118 ft 18 kts 120°
2026-04-30 08:00 38.96392 121.54806 118 ft 9 kts 133°
2026-04-30 08:00 38.96340 121.54831 118 ft 7 kts 205°
2026-04-30 08:00 38.96322 121.54772 118 ft 7 kts 273°
2026-04-30 08:01 38.96327 121.54703 118 ft 7 kts 275°
2026-04-30 08:01 38.96334 121.54619 118 ft 11 kts 276°
2026-04-30 08:01 38.96344 121.54501 118 ft 15 kts 275°
2026-04-30 08:01 38.96355 121.54352 118 ft 18 kts 275°
2026-04-30 08:02 38.96381 121.54004 118 ft 18 kts 275°
2026-04-30 08:02 38.96394 121.53843 118 ft 17 kts 275°
2026-04-30 08:03 38.96409 121.53648 118 ft 7 kts 275°
2026-04-30 08:03 38.96345 121.53584 118 ft 6 kts 181°
2026-04-30 08:03 38.96297 121.53582 118 ft 6 kts 182°
2026-04-30 08:04 38.96265 121.53580 118 ft 3 kts 182°
2026-04-30 08:04 38.96257 121.53580 118 ft 0 kts 182°